TEVEL-3

Last updated on Sun Aug 04 2024 00:02:59 GMT+0000 (Coordinated Universal Time)

1 50988U 22002E 24216.32026118 .06112943 24608-5 13272-2 0 9992 2 50988 97.3448 295.7406 0014751 266.8727 93.0880 16.30291923142513

Satellite not in orbit

TEVEL-3